C/2007 VO53 ( Spacewatch )

Japanese version
Home page
Total 5,708 html files since Dec. 4, 1995
Updated on January 21, 2008

---------------------------------------------------------------------

* Profile

Discovery Date November 1, 2007
Magnitude 20.6-20.8 mag
Discoverer Spacewatch survey

* Orbital Elements

Epoch 2010 May 4.0 TT = JDT 2455320.5
T 2010 Apr. 26.82747 TT                                 MPC
q   4.8451563            (2000.0)            P               Q
z  +0.0002070      Peri.   75.01333     +0.08659066     -0.49854568
 +/-0.0000753      Node    59.73633     -0.15538347     -0.86194271
e   0.9989969      Incl.   86.99519     +0.98405185     -0.09223320

* Finding Charts

* Magnitudes Graph

        m1 = 7.0 + 5 log d + 10.0 log r

---------------------------------------------------------------------

The orbital elements are published on M.P.E.C. 2008-B16.
The charts are made with StellaNavigator Ver.8 (AstroArts).
The magnitudes graphs are made with Comet for Windows.

---------------------------------------------------------------------

Copyright(C) 1995-2007 Seiichi Yoshida (comet@aerith.net). All rights reserved.